GW2849 Weather Reports


Display with metric or nautical units.
time (UTC)temp
F
wind
direction
speed
MPH
gust
MPH
rain 1hr
in
rain 24hr
in
rain mn
in
humidity
%
barometer
mb
20260506161101 55 360 0.0 9.0 0.00 0.85 0.44 60 1013.2
20260506160959 55 5 2.0 9.0 0.00 0.85 0.44 60 1013.2
20260506160859 55 341 2.0 6.0 0.00 0.85 0.44 61 1013.2
20260506160659 55 11 3.0 6.0 0.00 0.85 0.44 63 1013.3
20260506160600 55 5 1.0 6.0 0.00 0.85 0.44 61 1013.3
20260506160459 55 346 2.0 6.0 0.00 0.85 0.44 60 1013.2
20260506160401 55 5 1.0 6.0 0.00 0.85 0.44 59 1013.3
20260506160259 55 15 2.0 6.0 0.00 0.85 0.44 60 1013.3
20260506160201 55 360 4.0 6.0 0.00 0.85 0.44 61 1013.3
20260506160100 55 344 1.0 5.0 0.00 0.85 0.44 61 1013.3
20260506160001 55 346 1.0 5.0 0.00 0.85 0.44 61 1013.4
20260506155859 55 338 2.0 6.0 0.00 0.85 0.44 62 1013.2
20260506155801 55 19 3.0 6.0 0.00 0.85 0.44 62 1013.1
20260506155701 55 5 3.0 6.0 0.00 0.85 0.44 62 1013.1
20260506155600 55 327 0.0 6.0 0.00 0.85 0.44 62 1013.1
20260506155401 55 351 3.0 6.0 0.00 0.85 0.44 61 1013.1
20260506155259 54 18 1.0 9.0 0.00 0.85 0.44 62 1013.0
20260506155159 54 40 1.0 9.0 0.00 0.85 0.44 62 1013.0
20260506155100 54 9 1.0 9.0 0.00 0.85 0.44 62 1013.0
20260506155000 54 355 5.0 11.0 0.00 0.85 0.44 62 1013.0
20260506154900 54 332 3.0 11.0 0.00 0.85 0.44 61 1013.0
20260506154759 54 51 4.0 11.0 0.00 0.85 0.44 60 1012.9
20260506154659 54 355 2.0 11.0 0.00 0.85 0.44 60 1013.0
20260506154600 54 32 5.0 11.0 0.00 0.85 0.44 61 1013.0
20260506154400 54 16 5.0 11.0 0.00 0.85 0.44 62 1013.0
20260506154259 54 29 5.0 11.0 0.00 0.85 0.44 63 1013.0
20260506154200 54 355 5.0 11.0 0.00 0.85 0.44 63 1012.9
20260506154100 54 22 8.0 9.0 0.00 0.85 0.44 64 1013.0
20260506153959 54 360 1.0 6.0 0.00 0.85 0.44 64 1012.9
20260506153859 54 355 4.0 6.0 0.00 0.85 0.44 65 1012.9
20260506153801 54 304 4.0 6.0 0.00 0.85 0.44 62 1012.8
20260506153659 54 26 2.0 6.0 0.00 0.85 0.44 63 1012.8
20260506153600 54 323 0.0 6.0 0.00 0.85 0.44 61 1012.7
20260506153501 54 30 3.0 6.0 0.00 0.85 0.44 62 1012.7
20260506153302 54 44 2.0 6.0 0.00 0.85 0.44 64 1012.7
20260506153200 54 313 2.0 6.0 0.00 0.85 0.44 64 1012.8
20260506153101 54 42 3.0 8.0 0.00 0.85 0.44 63 1012.8
20260506152959 53 125 1.0 8.0 0.00 0.85 0.44 64 1012.9
20260506152902 53 42 1.0 8.0 0.00 0.85 0.44 62 1012.8
20260506152800 54 315 2.0 8.0 0.00 0.85 0.44 62 1012.9
20260506152659 54 44 4.0 8.0 0.00 0.85 0.44 64 1012.9
20260506152601 53 42 1.0 8.0 0.00 0.85 0.44 65 1012.8
20260506152500 53 336 3.0 8.0 0.00 0.85 0.44 65 1012.8
20260506152159 53 329 6.0 8.0 0.00 0.85 0.44 66 1013.0
20260506152100 53 345 1.0 8.0 0.00 0.85 0.44 66 1013.1
20260506152003 53 321 2.0 8.0 0.00 0.85 0.44 65 1013.1
20260506151901 53 355 1.0 8.0 0.00 0.85 0.44 66 1013.2
20260506151759 53 339 2.0 8.0 0.00 0.85 0.44 66 1013.2
20260506151702 53 344 2.0 8.0 0.00 0.85 0.44 66 1013.2
20260506151559 53 349 0.0 8.0 0.00 0.85 0.44 64 1013.3
20260506151501 53 17 4.0 8.0 0.00 0.85 0.44 63 1013.2
20260506151359 53 30 5.0 8.0 0.00 0.85 0.44 65 1013.3
20260506151202 53 335 3.0 6.0 0.00 0.85 0.44 65 1013.3
20260506151101 53 11 2.0 6.0 0.00 0.85 0.44 68 1013.2
20260506151000 53 22 2.0 6.0 0.00 0.85 0.44 67 1013.1
20260506150900 53 343 5.0 6.0 0.00 0.85 0.44 69 1013.0
20260506150659 53 350 2.0 5.0 0.00 0.85 0.44 68 1012.9
20260506150601 53 355 1.0 5.0 0.00 0.85 0.44 68 1012.9
20260506150501 53 355 1.0 5.0 0.00 0.85 0.44 67 1012.8
20260506150400 53 343 2.0 5.0 0.00 0.85 0.44 66 1012.8
20260506150304 53 347 3.0 5.0 0.00 0.85 0.44 66 1012.8
20260506150100 53 342 1.0 4.0 0.00 0.85 0.44 69 1012.6
20260506150001 52 320 2.0 4.0 0.00 0.85 0.44 68 1012.6
20260506145859 52 355 0.0 6.0 0.00 0.85 0.44 68 1012.4
20260506145800 52 355 1.0 6.0 0.00 0.85 0.44 68 1012.4
20260506145500 52 5 1.0 6.0 0.00 0.85 0.44 69 1012.5
20260506145400 52 38 2.0 6.0 0.00 0.85 0.44 69 1012.5
20260506145301 52 38 0.0 6.0 0.00 0.85 0.44 69 1012.5
20260506145201 52 10 2.0 6.0 0.00 0.85 0.44 69 1012.6
20260506144959 52 82 3.0 5.0 0.00 0.85 0.44 70 1012.7
20260506144901 52 332 0.0 5.0 0.00 0.85 0.44 70 1012.6
20260506144800 52 340 2.0 5.0 0.00 0.85 0.44 68 1012.6
20260506144700 52 36 4.0 5.0 0.00 0.85 0.44 69 1012.5
20260506144601 52 59 2.0 8.0 0.00 0.85 0.44 68 1012.4
20260506144459 52 36 1.0 8.0 0.00 0.85 0.44 68 1012.4
20260506144400 52 18 2.0 8.0 0.00 0.85 0.44 68 1012.4
20260506144259 52 45 2.0 8.0 0.00 0.85 0.44 68 1012.4
20260506144201 52 54 1.0 8.0 0.00 0.85 0.44 67 1012.4
20260506144059 52 28 3.0 8.0 0.00 0.85 0.44 69 1012.2
20260506144000 52 351 0.0 8.0 0.00 0.85 0.44 68 1012.2
20260506143901 52 95 2.0 8.0 0.00 0.85 0.44 69 1012.2
20260506143659 52 15 1.0 5.0 0.00 0.85 0.44 72 1012.0
20260506143459 51 9 0.0 5.0 0.00 0.85 0.44 74 1011.9
20260506143401 51 36 0.0 5.0 0.00 0.85 0.44 73 1012.0
20260506143259 51 16 0.0 5.0 0.00 0.85 0.44 73 1012.0
20260506143200 51 16 0.0 5.0 0.00 0.85 0.44 73 1012.0
20260506142901 51 330 0.0 5.0 0.00 0.85 0.44 75 1011.9
20260506142701 51 360 3.0 5.0 0.00 0.85 0.44 75 1011.9
20260506142559 51 347 3.0 5.0 0.00 0.85 0.44 76 1011.9
20260506142500 50 332 2.0 6.0 0.00 0.85 0.44 75 1011.9
20260506142400 50 311 1.0 6.0 0.00 0.85 0.44 75 1012.0
20260506142159 50 34 1.0 6.0 0.00 0.85 0.44 75 1011.9
20260506141959 50 319 1.0 6.0 0.00 0.85 0.44 75 1012.0
20260506141903 50 355 4.0 6.0 0.00 0.85 0.44 75 1012.0
20260506141759 50 341 2.0 6.0 0.00 0.85 0.44 75 1012.0
20260506141701 50 355 2.0 6.0 0.00 0.85 0.44 75 1011.9
20260506141559 50 355 1.0 6.0 0.00 0.85 0.44 76 1011.9
20260506141501 50 15 1.0 6.0 0.00 0.85 0.44 76 1011.9
20260506141401 50 355 5.0 8.0 0.00 0.85 0.44 76 1011.9
20260506141159 50 355 2.0 9.0 0.00 0.85 0.44 76 1011.9
20260506141059 50 5 2.0 9.0 0.00 0.85 0.44 77 1011.8
20260506141000 49 332 2.0 10.0 0.00 0.85 0.44 76 1011.9
20260506140800 49 349 0.0 10.0 0.00 0.85 0.44 75 1012.0
20260506140659 49 351 1.0 10.0 0.00 0.85 0.44 75 1011.9
20260506140600 49 11 5.0 10.0 0.00 0.85 0.44 76 1011.8
20260506140459 49 26 5.0 10.0 0.00 0.85 0.44 75 1011.8
20260506140300 50 336 2.0 10.0 0.00 0.85 0.44 75 1011.7
20260506140200 50 341 5.0 10.0 0.00 0.85 0.44 76 1011.8
20260506140000 50 349 0.0 9.0 0.00 0.85 0.44 77 1011.7
20260506135900 49 24 9.0 9.0 0.00 0.85 0.44 78 1011.7
20260506135800 49 351 1.0 4.0 0.00 0.85 0.44 79 1011.7
20260506135659 49 355 0.0 5.0 0.00 0.85 0.44 78 1011.6
20260506135601 49 360 0.0 5.0 0.00 0.85 0.44 79 1011.7
20260506135459 49 347 1.0 5.0 0.00 0.85 0.44 79 1011.8
20260506135359 49 355 2.0 5.0 0.00 0.85 0.44 79 1011.7
20260506135300 49 355 0.0 6.0 0.00 0.85 0.44 78 1011.7
20260506135159 49 10 2.0 6.0 0.00 0.85 0.44 78 1011.7
20260506135100 49 28 2.0 6.0 0.00 0.85 0.44 78 1011.8
20260506134759 49 15 3.0 6.0 0.00 0.85 0.44 79 1011.8
20260506134700 49 331 1.0 6.0 0.00 0.85 0.44 80 1011.8
20260506134602 49 341 0.0 6.0 0.00 0.85 0.44 79 1011.8
20260506134459 49 5 2.0 6.0 0.00 0.85 0.44 79 1011.8
20260506134400 49 355 6.0 6.0 0.00 0.85 0.44 79 1011.9
20260506134300 49 344 3.0 5.0 0.00 0.85 0.44 79 1011.9
20260506134200 49 347 4.0 5.0 0.00 0.85 0.44 80 1012.0
20260506134059 48 14 3.0 5.0 0.00 0.85 0.44 80 1011.9
20260506133959 48 340 2.0 3.0 0.00 0.85 0.44 81 1011.9
20260506133901 48 330 1.0 3.0 0.00 0.85 0.44 81 1011.8
20260506133759 48 348 0.0 5.0 0.00 0.85 0.44 81 1011.9
20260506133702 48 348 1.0 5.0 0.00 0.85 0.44 81 1011.9
20260506133601 48 348 1.0 5.0 0.00 0.85 0.44 81 1011.8
20260506133459 48 348 0.0 5.0 0.00 0.85 0.44 81 1011.8
20260506133400 48 348 1.0 5.0 0.00 0.85 0.44 81 1011.8
20260506133300 48 348 0.0 6.0 0.00 0.85 0.44 81 1011.9
20260506133200 48 350 0.0 8.0 0.00 0.85 0.44 80 1011.8
20260506132959 48 5 1.0 8.0 0.00 0.85 0.44 81 1011.7
20260506132859 48 360 3.0 8.0 0.00 0.85 0.44 81 1011.7
20260506132800 48 348 3.0 8.0 0.00 0.85 0.44 81 1011.8
20260506132700 47 355 2.0 8.0 0.00 0.85 0.44 81 1011.7
20260506132559 47 82 3.0 8.0 0.00 0.85 0.44 81 1011.7
20260506132459 47 25 2.0 8.0 0.00 0.85 0.44 82 1011.7
20260506132359 47 327 2.0 8.0 0.00 0.85 0.44 82 1011.7
20260506132259 47 355 2.0 8.0 0.00 0.85 0.44 82 1011.7
20260506132159 47 9 2.0 8.0 0.00 0.85 0.44 83 1011.7
20260506132059 47 355 2.0 8.0 0.00 0.85 0.44 82 1011.7
20260506132000 47 318 1.0 8.0 0.00 0.85 0.44 82 1011.7
20260506131859 47 322 2.0 8.0 0.00 0.85 0.44 82 1011.7
20260506131659 47 342 1.0 8.0 0.00 0.85 0.44 82 1011.6
20260506131459 47 321 3.0 8.0 0.00 0.85 0.44 82 1011.6
20260506131400 47 333 1.0 6.0 0.00 0.85 0.44 83 1011.6
20260506131203 47 9 1.0 8.0 0.00 0.85 0.44 82 1011.5
20260506130959 47 10 5.0 8.0 0.00 0.85 0.44 83 1011.5
20260506130759 46 355 0.0 8.0 0.00 0.85 0.44 83 1011.4
20260506130659 46 30 0.0 8.0 0.00 0.85 0.44 83 1011.3
20260506130559 46 30 0.0 8.0 0.00 0.85 0.44 83 1011.2
20260506130459 46 28 1.0 8.0 0.00 0.85 0.44 83 1011.3
20260506130402 46 12 3.0 8.0 0.00 0.85 0.44 83 1011.3
20260506130300 46 355 3.0 6.0 0.00 0.85 0.44 84 1011.3
20260506130201 46 360 0.0 6.0 0.00 0.85 0.44 84 1011.3
20260506130059 46 341 0.0 6.0 0.00 0.85 0.44 84 1011.2
20260506130001 46 338 0.0 6.0 0.00 0.85 0.44 84 1011.2
20260506125859 46 355 1.0 6.0 0.00 0.85 0.44 84 1011.2
20260506125759 46 28 2.0 6.0 0.00 0.85 0.44 84 1011.2
20260506125701 46 11 4.0 6.0 0.00 0.85 0.44 84 1011.2
20260506125459 46 346 2.0 6.0 0.00 0.85 0.44 84 1011.1
20260506125300 46 355 0.0 4.0 0.00 0.85 0.44 84 1011.2
20260506125159 46 15 0.0 5.0 0.00 0.85 0.44 85 1011.3
20260506125101 46 347 2.0 5.0 0.00 0.85 0.44 85 1011.3
20260506124959 46 330 3.0 5.0 0.00 0.85 0.44 85 1011.3
20260506124659 46 341 1.0 5.0 0.00 0.85 0.44 85 1011.5
20260506124559 46 360 0.0 5.0 0.00 0.85 0.44 85 1011.4
20260506124359 46 355 2.0 5.0 0.00 0.85 0.44 86 1011.4
20260506124300 46 22 2.0 5.0 0.00 0.85 0.44 86 1011.3
20260506124200 46 34 0.0 5.0 0.00 0.85 0.44 86 1011.3
20260506124100 46 336 1.0 4.0 0.00 0.85 0.44 86 1011.4
20260506124000 46 355 0.0 4.0 0.00 0.85 0.44 86 1011.3
20260506123900 46 338 1.0 4.0 0.00 0.85 0.44 86 1011.3
20260506123800 45 5 1.0 4.0 0.00 0.85 0.44 86 1011.3
20260506123659 45 20 0.0 4.0 0.00 0.85 0.44 86 1011.3
20260506123559 45 42 2.0 4.0 0.00 0.85 0.44 86 1011.4
20260506123459 45 14 2.0 5.0 0.00 0.85 0.44 87 1011.4
20260506123400 45 355 0.0 5.0 0.00 0.85 0.44 87 1011.4
20260506123259 45 355 0.0 5.0 0.00 0.85 0.44 87 1011.4
20260506123200 45 355 0.0 5.0 0.00 0.85 0.44 86 1011.5
20260506123101 45 355 0.0 5.0 0.00 0.85 0.44 86 1011.6
20260506122900 45 344 1.0 5.0 0.00 0.85 0.44 86 1011.4
20260506122759 45 355 0.0 5.0 0.00 0.85 0.44 86 1011.4
20260506122559 45 21 3.0 6.0 0.00 0.85 0.44 87 1011.5
20260506122401 45 341 0.0 6.0 0.00 0.85 0.44 87 1011.6
20260506122258 45 360 0.0 6.0 0.00 0.85 0.44 87 1011.4
20260506122201 45 355 0.0 6.0 0.00 0.85 0.44 87 1011.4
20260506122059 45 355 0.0 6.0 0.00 0.85 0.44 87 1011.4
20260506121859 45 14 2.0 6.0 0.00 0.85 0.44 87 1011.3
20260506121759 45 342 2.0 6.0 0.00 0.85 0.44 87 1011.4
20260506121701 45 338 3.0 5.0 0.00 0.85 0.44 87 1011.2
20260506121600 45 344 3.0 5.0 0.00 0.85 0.44 88 1011.2
20260506121500 45 5 1.0 5.0 0.00 0.85 0.44 88 1011.1
20260506121359 45 331 5.0 5.0 0.00 0.85 0.44 88 1011.0
20260506121259 45 5 0.0 3.0 0.00 0.85 0.44 88 1011.0
20260506121100 45 355 0.0 3.0 0.00 0.85 0.44 88 1011.0
20260506121000 45 355 1.0 3.0 0.00 0.85 0.44 88 1011.0
20260506120859 45 346 1.0 3.0 0.00 0.85 0.44 88 1011.0
20260506120759 45 346 2.0 3.0 0.00 0.85 0.44 88 1011.1
20260506120659 45 329 1.0 3.0 0.00 0.85 0.44 88 1011.2
20260506120559 45 346 2.0 3.0 0.00 0.85 0.44 88 1011.2
20260506120459 45 340 0.0 3.0 0.00 0.85 0.44 88 1011.1
20260506120402 45 340 2.0 3.0 0.00 0.85 0.44 88 1011.1
20260506120306 45 344 0.0 2.0 0.00 0.85 0.44 88 1011.0
20260506120200 45 344 0.0 2.0 0.00 0.85 0.44 88 1011.0
20260506115859 44 348 0.0 2.0 0.00 0.86 0.44 88 1010.9
20260506115800 44 348 0.0 3.0 0.00 0.86 0.44 88 1010.9
20260506115659 44 348 0.0 3.0 0.00 0.86 0.44 88 1010.8
20260506115600 44 348 0.0 3.0 0.00 0.86 0.44 88 1010.8
20260506115502 44 348 1.0 3.0 0.00 0.86 0.44 88 1010.7
20260506115401 44 351 2.0 3.0 0.00 0.86 0.44 88 1010.5
20260506115259 44 5 0.0 3.0 0.00 0.86 0.44 88 1010.5
20260506115159 44 5 0.0 3.0 0.00 0.86 0.44 88 1010.5
20260506115003 44 5 1.0 3.0 0.00 0.86 0.44 88 1010.5
20260506114700 44 351 0.0 2.0 0.00 0.86 0.44 88 1010.5
20260506114601 44 351 1.0 2.0 0.00 0.86 0.44 89 1010.5
20260506114500 44 351 0.0 2.0 0.00 0.86 0.44 89 1010.4
20260506114401 44 351 0.0 2.0 0.00 0.86 0.44 89 1010.3
20260506114259 44 340 0.0 2.0 0.00 0.86 0.44 89 1010.3
20260506114159 44 340 0.0 3.0 0.00 0.86 0.44 89 1010.3
20260506114059 44 25 0.0 3.0 0.00 0.86 0.44 89 1010.2
20260506114000 44 27 0.0 5.0 0.00 0.86 0.44 89 1010.1
20260506113900 44 27 0.0 5.0 0.00 0.86 0.44 89 1010.1
20260506113659 44 26 0.0 5.0 0.00 0.86 0.44 89 1010.1
20260506113459 44 26 0.0 5.0 0.00 0.86 0.44 89 1010.0
20260506113359 44 26 1.0 5.0 0.00 0.86 0.44 89 1009.9
20260506113259 44 26 0.0 5.0 0.00 0.86 0.44 89 1009.9
20260506113200 44 28 1.0 5.0 0.00 0.86 0.44 89 1009.9
20260506113059 44 28 4.0 5.0 0.00 0.86 0.44 89 1009.9
20260506113000 44 11 0.0 5.0 0.00 0.86 0.44 89 1009.9
20260506112801 44 24 3.0 5.0 0.00 0.86 0.44 89 1009.8
20260506112559 44 19 0.0 5.0 0.00 0.86 0.44 89 1009.8
20260506112501 44 15 5.0 5.0 0.00 0.86 0.44 89 1009.8
20260506112400 44 5 0.0 3.0 0.00 0.86 0.44 89 1009.8
20260506112300 43 5 0.0 3.0 0.00 0.86 0.44 89 1009.8
20260506112201 43 5 0.0 3.0 0.00 0.86 0.44 89 1009.9
20260506111959 43 344 0.0 5.0 0.00 0.86 0.44 89 1010.1
20260506111859 43 344 0.0 5.0 0.00 0.86 0.44 89 1010.1
20260506111701 43 344 2.0 5.0 0.00 0.86 0.44 89 1010.2
20260506111559 43 16 0.0 5.0 0.00 0.86 0.44 89 1010.1
20260506111500 43 16 1.0 5.0 0.00 0.86 0.44 89 1009.9
20260506111359 43 5 0.0 5.0 0.00 0.86 0.44 89 1009.8
20260506111259 43 345 3.0 5.0 0.00 0.86 0.44 89 1009.6
20260506111159 43 330 1.0 4.0 0.00 0.86 0.44 89 1009.6
20260506111101 43 350 1.0 4.0 0.00 0.86 0.44 89 1009.7
20260506111001 43 350 0.0 4.0 0.00 0.86 0.44 89 1009.6
20260506110859 43 350 0.0 4.0 0.00 0.86 0.44 89 1009.6
20260506110800 43 337 1.0 3.0 0.00 0.86 0.44 89 1009.6
20260506110600 43 9 0.0 3.0 0.00 0.86 0.44 89 1009.7
20260506110459 43 10 0.0 3.0 0.00 0.86 0.44 88 1009.7
20260506110301 43 10 0.0 4.0 0.00 0.86 0.44 89 1009.5
20260506110159 43 355 3.0 4.0 0.00 0.86 0.44 89 1009.6
20260506110100 43 20 0.0 4.0 0.00 0.86 0.44 89 1009.5
20260506110002 43 20 2.0 4.0 0.00 0.86 0.44 89 1009.5
20260506105900 43 20 0.0 4.0 0.00 0.89 0.44 88 1009.6
20260506105659 43 15 0.0 4.0 0.00 0.89 0.44 89 1009.6
20260506105559 43 15 0.0 4.0 0.00 0.89 0.44 89 1009.7
20260506105459 43 342 2.0 3.0 0.00 0.89 0.44 89 1009.6
20260506105401 43 13 0.0 3.0 0.00 0.89 0.44 89 1009.6
20260506105304 43 13 0.0 3.0 0.00 0.89 0.44 88 1009.5
20260506105200 43 13 0.0 3.0 0.00 0.89 0.44 89 1009.5
20260506105100 43 13 2.0 3.0 0.00 0.89 0.44 89 1009.5
20260506105000 43 13 0.0 3.0 0.00 0.89 0.44 88 1009.5
20260506104903 43 10 2.0 3.0 0.00 0.89 0.44 88 1009.5
20260506104802 43 10 1.0 3.0 0.00 0.89 0.44 88 1009.4
20260506104600 43 5 2.0 3.0 0.00 0.89 0.44 88 1009.3
20260506104504 43 9 0.0 3.0 0.00 0.89 0.44 88 1009.2
20260506104201 43 333 1.0 4.0 0.00 0.89 0.44 88 1009.2
20260506104102 43 333 1.0 4.0 0.00 0.89 0.44 88 1009.2
20260506104001 43 360 0.0 5.0 0.00 0.89 0.44 88 1009.1
20260506103801 43 5 0.0 5.0 0.00 0.89 0.44 88 1008.8
20260506103559 43 350 1.0 5.0 0.00 0.89 0.44 88 1008.9
20260506103459 43 355 1.0 5.0 0.00 0.89 0.44 88 1008.9
20260506103400 43 10 1.0 5.0 0.00 0.89 0.44 88 1009.0
20260506103300 43 343 2.0 5.0 0.00 0.89 0.44 88 1009.0
20260506103159 43 347 2.0 5.0 0.00 0.89 0.44 88 1009.0
20260506103100 43 10 2.0 5.0 0.00 0.89 0.44 88 1009.1
20260506103001 43 339 1.0 5.0 0.00 0.89 0.44 89 1009.0
20260506102859 43 333 1.0 5.0 0.00 0.89 0.44 89 1009.1
20260506102800 43 315 2.0 3.0 0.00 0.89 0.44 89 1009.1
20260506102700 44 347 0.0 3.0 0.00 0.89 0.44 89 1009.2
20260506102500 43 344 0.0 3.0 0.00 0.89 0.44 89 1009.3
20260506102300 44 355 0.0 8.0 0.00 0.89 0.44 89 1009.2
20260506102203 43 351 0.0 8.0 0.00 0.89 0.44 89 1009.2
20260506102100 43 355 2.0 8.0 0.00 0.89 0.44 89 1009.1
20260506102001 43 5 0.0 8.0 0.00 0.89 0.44 89 1009.1
20260506101800 43 351 0.0 8.0 0.00 0.89 0.44 88 1009.1
20260506101602 43 341 0.0 8.0 0.00 0.89 0.44 89 1009.1
20260506101500 43 29 3.0 8.0 0.00 0.89 0.44 89 1009.1
20260506101400 43 328 0.0 3.0 0.00 0.89 0.44 88 1009.1
20260506101302 43 330 1.0 4.0 0.00 0.89 0.44 88 1009.2
20260506101202 43 328 2.0 4.0 0.00 0.89 0.44 88 1009.2
20260506101100 43 336 1.0 4.0 0.00 0.89 0.44 88 1009.1
20260506100959 43 336 0.0 4.0 0.00 0.89 0.44 88 1009.1
20260506100901 43 334 0.0 4.0 0.00 0.89 0.44 88 1009.1
20260506100759 43 334 0.0 4.0 0.00 0.89 0.44 88 1009.1
20260506100701 43 334 0.0 4.0 0.00 0.89 0.44 88 1009.0
20260506100600 43 334 0.0 4.0 0.00 0.89 0.44 88 1008.9
20260506100359 43 16 1.0 6.0 0.00 0.89 0.44 88 1008.7
20260506100259 43 16 1.0 6.0 0.00 0.89 0.44 88 1008.7
20260506100159 43 16 0.0 6.0 0.00 0.89 0.44 88 1008.8
20260506100100 43 16 0.0 6.0 0.00 0.89 0.44 88 1008.7
20260506100001 43 16 0.0 6.0 0.00 0.92 0.44 88 1008.6
20260506095859 43 17 0.0 6.0 0.00 0.92 0.44 87 1008.5
20260506095759 43 18 1.0 6.0 0.00 0.92 0.44 87 1008.4
20260506095659 43 26 1.0 6.0 0.00 0.92 0.44 87 1008.4
20260506095559 43 16 5.0 7.0 0.00 0.92 0.44 87 1008.4
20260506095500 43 336 2.0 5.0 0.00 0.92 0.44 87 1008.4
20260506095359 43 351 3.0 5.0 0.00 0.92 0.44 87 1008.5
20260506095300 43 11 2.0 5.0 0.00 0.92 0.44 87 1008.5
20260506095159 43 360 1.0 5.0 0.00 0.92 0.44 87 1008.4
20260506095059 43 355 2.0 5.0 0.00 0.92 0.44 87 1008.4
20260506094958 43 5 4.0 5.0 0.00 0.92 0.44 88 1008.4
20260506094759 43 5 1.0 4.0 0.00 0.92 0.44 88 1008.5
20260506094659 43 5 0.0 4.0 0.00 0.92 0.44 88 1008.5
20260506094559 43 5 1.0 4.0 0.00 0.92 0.44 88 1008.6
20260506094459 43 351 0.0 4.0 0.00 0.92 0.44 88 1008.6
20260506094402 43 351 0.0 5.0 0.00 0.92 0.44 87 1008.6
20260506094301 43 336 1.0 5.0 0.00 0.92 0.44 88 1008.5
20260506094100 43 360 3.0 5.0 0.00 0.92 0.44 88 1008.5
20260506094000 43 360 0.0 5.0 0.00 0.92 0.44 88 1008.6
20260506093900 43 360 1.0 5.0 0.00 0.92 0.44 87 1008.6
20260506093759 43 5 0.0 6.0 0.00 0.92 0.44 87 1008.6
20260506093659 43 5 0.0 6.0 0.00 0.92 0.44 87 1008.6
20260506093559 43 5 2.0 6.0 0.00 0.92 0.44 87 1008.6
20260506093501 43 5 1.0 6.0 0.00 0.92 0.44 87 1008.6
20260506093259 43 25 2.0 6.0 0.00 0.92 0.44 88 1008.6
20260506093202 43 26 1.0 6.0 0.00 0.92 0.44 88 1008.5
20260506092859 43 9 3.0 6.0 0.00 0.92 0.44 88 1008.6
20260506092759 43 5 5.0 7.0 0.00 0.92 0.44 88 1008.6
20260506092700 43 324 2.0 3.0 0.00 0.92 0.44 88 1008.8
20260506092601 43 334 1.0 5.0 0.00 0.92 0.44 88 1008.9
20260506092459 43 336 2.0 5.0 0.00 0.92 0.44 88 1008.9
20260506092400 43 337 0.0 5.0 0.00 0.92 0.44 88 1008.9
20260506092259 43 343 0.0 5.0 0.00 0.92 0.44 88 1008.9
20260506092201 43 331 0.0 5.0 0.00 0.92 0.44 88 1008.9
20260506092101 43 331 0.0 5.0 0.00 0.92 0.44 88 1008.8
20260506092000 43 331 1.0 5.0 0.00 0.92 0.44 88 1008.6
20260506091859 43 340 1.0 5.0 0.00 0.92 0.44 88 1008.5
20260506091800 43 11 3.0 5.0 0.00 0.92 0.44 88 1008.5
20260506091700 43 355 2.0 6.0 0.00 0.92 0.44 88 1008.5
20260506091459 43 24 0.0 9.0 0.00 0.92 0.44 88 1008.5
20260506091359 43 19 1.0 11.0 0.00 0.92 0.44 88 1008.4
20260506091259 43 5 3.0 11.0 0.00 0.92 0.44 88 1008.3
20260506091159 43 344 3.0 11.0 0.00 0.92 0.44 88 1008.3
20260506091100 43 344 0.0 11.0 0.01 0.92 0.44 88 1008.3
20260506091001 43 334 2.0 11.0 0.01 0.92 0.44 87 1008.2
20260506090900 43 39 3.0 11.0 0.01 0.92 0.44 88 1008.2
20260506090759 43 306 9.0 11.0 0.01 0.92 0.44 88 1008.1
20260506090701 43 5 3.0 11.0 0.01 0.92 0.44 88 1008.1
20260506090600 43 39 4.0 11.0 0.01 0.92 0.44 88 1008.0
20260506090500 43 34 3.0 10.0 0.01 0.92 0.44 88 1008.1
20260506090400 43 11 2.0 10.0 0.01 0.92 0.44 88 1008.1
20260506090259 44 10 4.0 10.0 0.01 0.92 0.44 88 1008.0
20260506090200 43 30 3.0 10.0 0.01 0.92 0.44 88 1008.0
20260506090100 44 5 3.0 10.0 0.01 0.92 0.44 88 1007.9
20260506090002 44 43 2.0 10.0 0.01 0.92 0.44 89 1007.9
20260506085900 44 46 3.0 5.0 0.01 0.92 0.44 89 1008.0
20260506085659 44 17 2.0 8.0 0.01 0.92 0.44 89 1008.0
20260506085600 44 20 2.0 8.0 0.01 0.92 0.44 89 1008.0
20260506085459 44 325 2.0 8.0 0.01 0.92 0.44 89 1007.9
20260506085401 44 355 2.0 8.0 0.01 0.92 0.44 89 1007.9
20260506085259 44 22 3.0 8.0 0.01 0.92 0.44 89 1007.9
20260506085201 44 348 1.0 8.0 0.01 0.92 0.44 89 1007.9
20260506085102 44 24 5.0 10.0 0.01 0.92 0.44 89 1007.9
20260506084959 44 5 3.0 10.0 0.01 0.92 0.44 89 1008.0
20260506084800 44 327 2.0 11.0 0.01 0.92 0.44 89 1007.9
20260506084700 44 348 1.0 11.0 0.01 0.92 0.44 89 1007.9
20260506084558 44 17 2.0 11.0 0.01 0.92 0.44 89 1008.0
20260506084500 44 53 3.0 11.0 0.01 0.92 0.44 89 1008.0
20260506084302 44 294 4.0 11.0 0.01 0.92 0.44 89 1008.0
20260506084159 44 348 8.0 11.0 0.01 0.92 0.44 89 1008.0
20260506084101 44 11 5.0 11.0 0.01 0.92 0.44 89 1008.0
20260506084000 44 355 5.0 9.0 0.01 0.92 0.44 89 1008.1
20260506083859 44 355 8.0 10.0 0.01 0.92 0.44 89 1008.2
20260506083800 44 10 1.0 10.0 0.01 0.92 0.44 90 1008.3
20260506083700 44 10 4.0 10.0 0.01 0.92 0.44 90 1008.2
20260506083559 44 348 2.0 10.0 0.01 0.92 0.44 90 1008.3
20260506083459 44 343 2.0 10.0 0.01 0.92 0.44 90 1008.3
20260506083400 44 13 7.0 10.0 0.01 0.92 0.44 90 1008.3
20260506083300 44 5 5.0 10.0 0.01 0.92 0.44 90 1008.2
20260506083159 44 11 1.0 10.0 0.01 0.92 0.44 90 1008.1
20260506083102 44 34 8.0 10.0 0.01 0.92 0.44 90 1008.0
20260506082959 44 328 8.0 10.0 0.01 0.92 0.44 90 1008.1
20260506082859 44 49 4.0 8.0 0.01 0.92 0.44 90 1008.1
20260506082759 44 12 3.0 8.0 0.02 0.92 0.44 90 1008.2
20260506082659 44 355 6.0 8.0 0.02 0.92 0.44 90 1008.1
20260506082600 44 345 1.0 9.0 0.02 0.92 0.44 90 1008.2
20260506082401 44 9 2.0 9.0 0.02 0.92 0.44 90 1008.0
20260506082304 44 5 2.0 9.0 0.02 0.92 0.44 90 1007.9
20260506082201 44 322 3.0 9.0 0.02 0.92 0.44 90 1007.9
20260506082059 45 355 1.0 9.0 0.02 0.92 0.44 90 1007.8
20260506081959 45 333 0.0 9.0 0.02 0.92 0.44 90 1007.7
20260506081859 45 300 1.0 9.0 0.02 0.92 0.44 90 1007.7
20260506081759 45 360 3.0 9.0 0.03 0.92 0.44 90 1007.7
20260506081701 45 27 5.0 9.0 0.03 0.92 0.44 90 1007.7
20260506081602 45 27 3.0 9.0 0.03 0.92 0.44 90 1007.7
20260506081500 45 5 4.0 9.0 0.03 0.92 0.44 90 1007.6
20260506081259 45 5 8.0 9.0 0.04 0.92 0.44 90 1007.6
20260506081202 45 38 1.0 9.0 0.04 0.92 0.44 90 1007.5
20260506081100 45 315 2.0 9.0 0.03 0.91 0.43 90 1007.5
20260506081000 45 9 4.0 9.0 0.03 0.91 0.43 90 1007.6
20260506080902 45 12 9.0 9.0 0.03 0.91 0.43 90 1007.6
20260506080800 45 11 0.0 9.0 0.03 0.91 0.43 89 1007.6
20260506080701 45 355 5.0 9.0 0.03 0.91 0.43 90 1007.6
20260506080559 45 355 1.0 8.0 0.03 0.91 0.43 90 1007.5
20260506080502 45 336 6.0 8.0 0.03 0.91 0.43 90 1007.5
20260506080302 45 355 5.0 9.0 0.03 0.91 0.43 90 1007.5
20260506080201 45 5 0.0 9.0 0.04 0.91 0.43 90 1007.5
20260506073501 47 17 3.0 8.0 0.10 0.91 0.43 91 1007.4
20260506073400 47 9 0.0 8.0 0.10 0.91 0.43 91 1007.3
20260506073300 47 13 3.0 8.0 0.10 0.91 0.43 91 1007.3
20260506073158 47 5 4.0 8.0 0.11 0.91 0.43 91 1007.3
20260506073058 47 355 2.0 8.0 0.11 0.91 0.43 91 1007.3
20260506072900 47 20 3.0 8.0 0.11 0.91 0.43 91 1007.2
20260506072759 47 13 3.0 9.0 0.11 0.90 0.42 91 1007.1
20260506072658 47 329 2.0 9.0 0.11 0.90 0.42 91 1007.3
20260506072558 47 312 1.0 9.0 0.11 0.90 0.42 91 1007.3
20260506072458 47 38 1.0 9.0 0.11 0.90 0.42 91 1007.3
20260506072358 47 333 0.0 9.0 0.11 0.90 0.42 91 1007.3
20260506072258 47 5 2.0 9.0 0.12 0.90 0.42 90 1007.4
20260506071858 47 5 3.0 9.0 0.13 0.90 0.42 91 1007.3
20260506071800 47 350 3.0 9.0 0.12 0.89 0.41 91 1007.2
20260506071659 47 345 1.0 9.0 0.12 0.89 0.41 91 1007.3
20260506071559 47 346 5.0 9.0 0.13 0.89 0.41 91 1007.4
20260506071259 47 344 3.0 9.0 0.12 0.88 0.40 91 1007.5
20260506071100 47 360 4.0 10.0 0.12 0.88 0.40 91 1007.6
20260506070859 47 23 5.0 10.0 0.12 0.88 0.40 91 1007.7
20260506070758 47 27 1.0 10.0 0.13 0.88 0.40 90 1007.7
20260506070558 47 24 0.0 10.0 0.13 0.88 0.40 90 1007.7
20260506070458 47 360 2.0 10.0 0.13 0.88 0.40 90 1007.7
20260506070358 47 28 3.0 10.0 0.13 0.88 0.40 90 1007.8
20260506070259 47 348 3.0 10.0 0.12 0.87 0.39 90 1007.6
20260506070158 47 5 2.0 10.0 0.13 0.87 0.39 90 1007.6
20260506062500 48 77 4.0 10.0 0.13 0.79 0.31 90 1006.7
20260506062358 48 333 4.0 9.0 0.13 0.79 0.31 90 1006.7
20260506062300 48 355 6.0 12.0 0.12 0.78 0.30 90 1006.8
20260506062201 48 15 1.0 12.0 0.12 0.78 0.30 90 1006.8
20260506062100 48 17 3.0 12.0 0.12 0.78 0.30 90 1006.8
20260506062001 49 355 2.0 12.0 0.12 0.77 0.29 90 1006.7
20260506061859 49 11 1.0 12.0 0.12 0.77 0.29 90 1006.8
20260506061501 49 9 0.0 12.0 0.11 0.76 0.28 90 1006.7
20260506061359 49 10 3.0 12.0 0.11 0.76 0.28 90 1006.8
20260506061259 49 9 2.0 12.0 0.11 0.76 0.28 90 1006.8
20260506061200 49 5 1.0 12.0 0.11 0.76 0.28 90 1006.7
20260506061100 49 18 2.0 12.0 0.11 0.76 0.28 90 1006.7
20260506060800 49 350 2.0 12.0 0.11 0.75 0.27 90 1006.5
20260506060700 49 349 0.0 12.0 0.11 0.75 0.27 90 1006.6
20260506060559 49 327 4.0 12.0 0.11 0.75 0.27 90 1006.5
20260506060459 49 346 6.0 8.0 0.11 0.75 0.27 90 1006.6
20260506060359 49 326 3.0 8.0 0.12 0.75 0.27 90 1006.5
20260506060300 49 334 2.0 8.0 0.12 0.75 0.27 90 1006.5
20260506060158 50 23 2.0 8.0 0.11 0.74 0.26 90 1006.5
20260506051402 54 349 2.0 8.0 0.15 0.65 0.17 87 1006.5
20260506051300 54 355 4.0 8.0 0.15 0.65 0.17 87 1006.5
20260506051200 54 338 2.0 9.0 0.15 0.65 0.17 87 1006.5
20260506051059 54 335 0.0 9.0 0.15 0.65 0.17 87 1006.5
20260506051000 55 5 6.0 9.0 0.15 0.65 0.17 87 1006.4
20260506050901 55 327 1.0 9.0 0.15 0.65 0.17 87 1006.4
20260506050801 55 5 2.0 9.0 0.14 0.64 0.16 87 1006.3
20260506050659 55 5 0.0 9.0 0.15 0.64 0.16 87 1006.4
20260506050600 56 12 2.0 9.0 0.15 0.64 0.16 87 1006.3
20260506050501 56 11 3.0 9.0 0.15 0.64 0.16 88 1006.3
20260506050400 56 347 2.0 9.0 0.15 0.63 0.15 88 1006.3
20260506050300 56 360 4.0 8.0 0.15 0.63 0.15 89 1006.2
20260506050202 57 330 2.0 8.0 0.15 0.63 0.15 89 1006.2
20260506045059 58 246 0.0 6.0 0.08 0.56 0.08 91 1006.0
20260506044959 58 150 0.0 6.0 0.07 0.55 0.07 91 1005.9
20260506044859 58 295 0.0 6.0 0.07 0.55 0.07 91 1005.9
20260506044759 58 314 0.0 6.0 0.07 0.55 0.07 91 1005.9
20260506044701 58 244 3.0 6.0 0.07 0.55 0.07 91 1005.8
20260506044559 58 313 0.0 6.0 0.06 0.54 0.06 91 1005.8
20260506044458 58 237 0.0 6.0 0.06 0.54 0.06 91 1005.9
20260506044358 58 173 6.0 6.0 0.06 0.54 0.06 91 1005.9
20260506044258 58 190 0.0 5.0 0.06 0.54 0.06 91 1005.8
20260506044057 58 182 0.0 5.0 0.06 0.54 0.06 91 1005.9
20260506043957 58 163 1.0 5.0 0.06 0.54 0.06 91 1006.0
20260506043858 58 191 2.0 5.0 0.06 0.54 0.06 91 1006.0
20260506043759 58 178 0.0 0.0 0.06 0.54 0.06 91 1006.0
20260506043658 58 182 0.0 0.0 0.06 0.54 0.06 91 1006.0
20260506043557 58 185 0.0 0.0 0.06 0.54 0.06 91 1006.0
20260506043500 58 208 0.0 0.0 0.06 0.54 0.06 91 1006.0
20260506043200 58 118 0.0 0.0 0.06 0.54 0.06 91 1006.0
20260506043000 58 168 0.0 0.0 0.05 0.53 0.05 91 1006.0
20260506042902 58 152 0.0 0.0 0.04 0.52 0.04 91 1005.9
20260506042801 58 167 0.0 0.0 0.04 0.52 0.04 91 1006.1
20260506042701 58 168 0.0 0.0 0.04 0.52 0.04 91 1006.1
20260506042600 58 102 0.0 0.0 0.03 0.51 0.03 91 1006.1
20260506042500 58 102 0.0 0.0 0.03 0.51 0.03 91 1006.1
20260506042400 58 102 0.0 0.0 0.03 0.51 0.03 91 1006.1
20260506042300 58 102 0.0 0.0 0.03 0.51 0.03 91 1006.1
20260506042201 58 144 0.0 0.0 0.02 0.50 0.02 91 1006.1
20260506042101 58 144 0.0 0.0 0.02 0.50 0.02 91 1006.1
20260506041959 58 149 0.0 0.0 0.02 0.50 0.02 91 1006.2
20260506041900 58 277 0.0 0.0 0.02 0.50 0.02 91 1006.1
20260506041800 58 89 0.0 0.0 0.03 0.50 0.02 91 1006.1
20260506041701 58 215 0.0 0.0 0.03 0.50 0.02 91 1006.1
20260506041600 58 221 0.0 0.0 0.03 0.50 0.02 91 1006.0
20260506041501 58 227 0.0 0.0 0.03 0.50 0.02 91 1006.0
20260506041300 58 149 0.0 0.0 0.03 0.50 0.02 91 1006.1
20260506041200 58 155 0.0 0.0 0.03 0.50 0.02 91 1006.2
20260506041100 58 155 0.0 0.0 0.03 0.50 0.02 91 1006.1
20260506040959 58 155 0.0 0.0 0.03 0.50 0.02 91 1006.1
20260506040901 58 155 0.0 0.0 0.03 0.50 0.02 91 1006.1
20260506040802 58 155 0.0 0.0 0.03 0.50 0.02 91 1006.1
20260506040701 58 134 0.0 0.0 0.02 0.49 0.01 91 1006.1
20260506040501 58 134 0.0 0.0 0.02 0.49 0.01 91 1006.0
20260506040400 58 134 0.0 0.0 0.01 0.48 0.00 91 1006.1
20260506040201 58 134 0.0 0.0 0.01 0.48 0.00 91 1006.0
20260506040100 58 134 0.0 0.0 0.01 0.48 0.00 91 1006.0
20260506040000 58 134 0.0 0.0 0.01 0.48 0.48 91 1006.0
20260506035901 58 125 0.0 0.0 0.01 0.48 0.48 91 1005.9
20260506035800 58 150 0.0 0.0 0.01 0.48 0.48 91 1006.0
20260506035700 58 150 0.0 0.0 0.01 0.48 0.48 91 1005.9
20260506035602 58 150 0.0 0.0 0.01 0.48 0.48 91 1005.9
20260506035500 58 150 0.0 0.0 0.01 0.48 0.48 91 1006.0
20260506035400 58 150 0.0 0.0 0.01 0.48 0.48 91 1006.0
20260506035259 58 150 0.0 0.0 0.01 0.48 0.48 91 1006.0
20260506035200 58 160 0.0 0.0 0.01 0.48 0.48 91 1005.9
20260506035100 58 144 0.0 0.0 0.01 0.48 0.48 91 1006.0
20260506034900 58 145 0.0 0.0 0.01 0.48 0.48 91 1005.9
20260506034800 58 146 0.0 0.0 0.01 0.48 0.48 91 1005.9
20260506034659 58 157 0.0 0.0 0.01 0.48 0.48 91 1005.8
20260506034600 58 169 0.0 0.0 0.01 0.48 0.48 91 1005.9
20260506034500 58 157 0.0 0.0 0.01 0.48 0.48 91 1005.9
20260506034400 58 160 0.0 0.0 0.01 0.48 0.48 91 1006.0
20260506034300 58 159 0.0 0.0 0.01 0.48 0.48 91 1006.0
20260506034201 58 146 0.0 0.0 0.01 0.48 0.48 91 1006.0
20260506034102 58 159 0.0 0.0 0.01 0.48 0.48 91 1006.0
20260506034001 58 154 0.0 0.0 0.01 0.48 0.48 91 1006.1
20260506033901 58 154 0.0 0.0 0.01 0.48 0.48 91 1006.1
20260506033600 58 167 0.0 0.0 0.01 0.48 0.48 91 1006.1
20260506033501 58 148 0.0 0.0 0.01 0.48 0.48 91 1006.1
20260506033400 58 144 0.0 0.0 0.01 0.48 0.48 91 1006.0
20260506033302 58 163 0.0 0.0 0.01 0.48 0.48 91 1006.0
20260506033201 58 168 0.0 0.0 0.02 0.48 0.48 91 1006.1
20260506033101 58 153 0.0 0.0 0.02 0.48 0.48 91 1006.1
20260506032800 58 159 0.0 0.0 0.02 0.48 0.48 91 1006.3
20260506032701 58 159 0.0 0.0 0.02 0.48 0.48 91 1006.2
20260506032600 58 148 0.0 1.0 0.02 0.48 0.48 91 1006.3
20260506032501 58 160 0.0 1.0 0.02 0.48 0.48 91 1006.3
20260506032401 58 173 0.0 1.0 0.02 0.48 0.48 91 1006.2
20260506032301 58 153 0.0 1.0 0.02 0.48 0.48 91 1006.3
20260506032201 58 163 0.0 1.0 0.02 0.48 0.48 91 1006.3
20260506032100 58 162 0.0 1.0 0.02 0.48 0.48 91 1006.3
20260506032001 58 170 0.0 1.0 0.02 0.48 0.48 91 1006.3
20260506031900 58 157 0.0 1.0 0.01 0.47 0.47 91 1006.3
20260506031800 58 148 0.0 1.0 0.01 0.47 0.47 91 1006.4
20260506031701 58 146 0.0 0.0 0.01 0.47 0.47 91 1006.4
20260506031600 58 150 0.0 0.0 0.01 0.47 0.47 91 1006.4
20260506031500 58 157 0.0 0.0 0.01 0.47 0.47 91 1006.4
20260506031400 58 157 0.0 0.0 0.01 0.47 0.47 91 1006.5
20260506031100 58 147 0.0 0.0 0.01 0.47 0.47 91 1006.6
20260506031002 58 166 0.0 0.0 0.01 0.47 0.47 91 1006.6
20260506030900 58 153 0.0 0.0 0.01 0.47 0.47 91 1006.5
20260506030800 58 154 0.0 0.0 0.01 0.47 0.47 91 1006.6
20260506030700 58 158 0.0 1.0 0.02 0.47 0.47 91 1006.5
20260506030559 58 158 0.0 1.0 0.02 0.47 0.47 91 1006.6
20260506030501 58 158 0.0 1.0 0.02 0.47 0.47 91 1006.5
20260506030401 58 157 0.0 1.0 0.02 0.47 0.47 91 1006.5
20260506030200 58 134 0.0 1.0 0.02 0.47 0.47 91 1006.6
20260506030100 58 123 0.0 1.0 0.02 0.47 0.47 91 1006.6
20260506025806 58 125 0.0 1.0 0.02 0.47 0.47 91 1006.7
20260506025701 58 125 0.0 1.0 0.02 0.47 0.47 91 1006.7
20260506025401 58 234 0.0 1.0 0.02 0.47 0.47 91 1006.7
20260506025301 58 234 0.0 1.0 0.03 0.47 0.47 91 1006.8
20260506025202 58 234 0.0 1.0 0.03 0.47 0.47 91 1006.9
20260506025103 58 234 0.0 0.0 0.03 0.47 0.47 91 1006.9
20260506025002 58 234 0.0 0.0 0.03 0.47 0.47 91 1007.1
20260506024902 58 234 0.0 0.0 0.03 0.47 0.47 91 1007.1
20260506024801 58 234 0.0 0.0 0.03 0.47 0.47 90 1007.0
20260506024701 58 234 0.0 0.0 0.03 0.47 0.47 90 1006.9
20260506024601 58 234 0.0 0.0 0.04 0.47 0.47 90 1006.9
20260506024502 58 234 0.0 0.0 0.04 0.47 0.47 90 1006.9
20260506024401 58 234 0.0 0.0 0.04 0.47 0.47 90 1006.8
20260506024201 58 234 0.0 0.0 0.04 0.47 0.47 90 1006.7
20260506024101 58 234 0.0 0.0 0.04 0.47 0.47 90 1006.6
20260506024003 58 234 0.0 0.0 0.04 0.47 0.47 90 1006.6
20260506023902 58 234 0.0 1.0 0.04 0.47 0.47 90 1006.6
20260506023803 58 234 0.0 1.0 0.05 0.47 0.47 90 1006.6
20260506023700 58 234 0.0 1.0 0.05 0.47 0.47 90 1006.6
20260506023503 58 234 0.0 1.0 0.05 0.47 0.47 90 1006.7
20260506023401 59 234 0.0 1.0 0.05 0.47 0.47 90 1006.9
20260506023301 59 234 0.0 1.0 0.05 0.47 0.47 90 1006.9
20260506023203 59 236 0.0 1.0 0.04 0.46 0.46 90 1006.9
20260506023104 59 238 0.0 1.0 0.04 0.46 0.46 90 1007.1
20260506023001 59 242 0.0 1.0 0.04 0.46 0.46 90 1007.2
20260506022902 59 160 0.0 1.0 0.04 0.46 0.46 90 1007.2
20260506022802 59 160 0.0 3.0 0.04 0.46 0.46 90 1007.2
20260506022702 59 169 0.0 3.0 0.04 0.46 0.46 90 1007.2
20260506022601 59 184 0.0 3.0 0.04 0.46 0.46 90 1007.2
20260506022501 59 184 0.0 3.0 0.04 0.46 0.46 90 1007.2
20260506022402 59 202 0.0 3.0 0.04 0.46 0.46 90 1007.3
20260506022305 59 202 0.0 3.0 0.05 0.46 0.46 90 1007.3
20260506022204 59 202 0.0 3.0 0.05 0.46 0.46 90 1007.2
20260506022101 59 254 0.0 3.0 0.05 0.46 0.46 90 1007.2
20260506022002 59 194 3.0 3.0 0.05 0.46 0.46 90 1007.2
20260506021902 59 229 0.0 0.0 0.05 0.46 0.46 90 1007.2
20260506021802 59 229 0.0 0.0 0.05 0.46 0.46 90 1007.2
20260506021701 59 229 0.0 0.0 0.05 0.46 0.46 90 1007.2
20260506021603 59 229 0.0 0.0 0.05 0.46 0.46 90 1007.2
20260506021501 59 217 0.0 0.0 0.05 0.46 0.46 90 1007.2
20260506021401 59 213 0.0 0.0 0.05 0.46 0.46 90 1007.2
20260506021302 59 215 0.0 0.0 0.05 0.46 0.46 90 1007.2
20260506021202 59 186 0.0 0.0 0.05 0.46 0.46 90 1007.2
20260506021002 59 189 0.0 0.0 0.06 0.46 0.46 90 1007.1
20260506020902 59 189 0.0 0.0 0.06 0.46 0.46 90 1007.1
20260506020702 59 189 0.0 0.0 0.06 0.45 0.45 90 1007.2
20260506020602 59 189 0.0 0.0 0.06 0.45 0.45 90 1007.2
20260506020501 59 189 0.0 0.0 0.07 0.45 0.45 90 1007.2
20260506020301 59 165 0.0 0.0 0.08 0.45 0.45 90 1007.2
20260506020201 59 165 0.0 0.0 0.08 0.45 0.45 90 1007.1
20260506015800 59 187 0.0 0.0 0.09 0.45 0.45 90 1007.0
20260506015659 59 187 0.0 0.0 0.10 0.45 0.45 90 1006.9
20260506015600 59 187 0.0 0.0 0.10 0.45 0.45 90 1007.0
20260506015501 59 187 0.0 0.0 0.10 0.45 0.45 90 1007.0
20260506015402 59 187 0.0 0.0 0.11 0.45 0.45 90 1007.1
20260506015301 59 196 0.0 0.0 0.11 0.44 0.44 90 1007.1
20260506015200 59 196 0.0 0.0 0.11 0.44 0.44 90 1007.2
20260506015101 59 196 0.0 1.0 0.12 0.44 0.44 90 1007.2
20260506015000 59 194 0.0 1.0 0.12 0.44 0.44 90 1007.3
20260506014900 59 204 0.0 1.0 0.12 0.44 0.44 90 1007.3
20260506014800 59 204 0.0 1.0 0.12 0.44 0.44 89 1007.2
20260506014600 59 204 0.0 1.0 0.11 0.43 0.43 89 1007.3
20260506014500 59 259 0.0 1.0 0.11 0.43 0.43 89 1007.3
20260506014400 59 178 0.0 1.0 0.11 0.43 0.43 89 1007.3
20260506014301 59 276 0.0 1.0 0.11 0.43 0.43 89 1007.3
20260506014000 59 248 0.0 0.0 0.11 0.43 0.43 89 1007.2
20260506013900 59 248 0.0 0.0 0.10 0.42 0.42 89 1007.2
20260506013803 59 248 0.0 0.0 0.10 0.42 0.42 89 1007.1
20260506013700 59 284 0.0 0.0 0.10 0.42 0.42 89 1007.2
20260506013603 59 194 0.0 0.0 0.10 0.42 0.42 89 1007.2
20260506013500 59 203 0.0 0.0 0.10 0.42 0.42 89 1007.1
20260506013401 59 203 0.0 0.0 0.10 0.42 0.42 89 1007.2
20260506013301 59 203 0.0 0.0 0.10 0.42 0.42 89 1007.1
20260506013202 59 203 0.0 0.0 0.10 0.42 0.42 89 1007.1
20260506013102 59 203 0.0 0.0 0.10 0.42 0.42 89 1007.1
20260506013001 59 203 0.0 0.0 0.10 0.42 0.42 89 1007.1
20260506012902 59 203 0.0 0.0 0.10 0.42 0.42 89 1007.1
20260506012801 59 203 0.0 0.0 0.10 0.42 0.42 89 1007.0
20260506012603 59 246 0.0 0.0 0.10 0.42 0.42 89 1007.1
20260506012403 59 246 0.0 0.0 0.09 0.41 0.41 89 1007.1
20260506012307 59 246 0.0 0.0 0.09 0.41 0.41 89 1007.1
20260506012102 59 246 0.0 0.0 0.09 0.41 0.41 89 1007.0
20260506012002 59 246 0.0 0.0 0.09 0.41 0.41 89 1007.1
20260506011902 59 246 0.0 0.0 0.09 0.41 0.41 89 1007.1
20260506011803 59 225 0.0 0.0 0.09 0.41 0.41 89 1007.1
20260506011702 59 225 0.0 0.0 0.09 0.41 0.41 89 1007.0
20260506011602 59 215 0.0 0.0 0.09 0.41 0.41 89 1007.0
20260506011403 59 216 0.0 0.0 0.09 0.41 0.41 89 1007.0
20260506011301 59 226 0.0 0.0 0.09 0.41 0.41 89 1007.0
20260506011201 59 265 0.0 0.0 0.08 0.40 0.40 89 1007.0
20260506011102 59 265 0.0 0.0 0.08 0.40 0.40 88 1007.0
20260506010902 60 265 0.0 0.0 0.08 0.40 0.40 88 1007.0
20260506010801 59 265 0.0 0.0 0.07 0.39 0.39 88 1006.9
20260506010703 59 265 0.0 0.0 0.07 0.39 0.39 88 1006.8
20260506010602 59 265 0.0 0.0 0.07 0.39 0.39 88 1006.8
20260506010503 59 265 0.0 0.0 0.06 0.38 0.38 88 1006.8
20260506010403 60 265 0.0 1.0 0.07 0.38 0.38 88 1006.9
20260506010301 59 263 0.0 1.0 0.06 0.37 0.37 88 1006.8
20260506010202 60 202 0.0 1.0 0.06 0.37 0.37 88 1006.9
20260506005801 60 186 0.0 1.0 0.05 0.36 0.36 88 1007.0
20260506005701 60 185 0.0 1.0 0.04 0.35 0.35 88 1007.0
20260506005500 60 321 0.0 1.0 0.04 0.35 0.35 88 1007.1
20260506005401 60 261 0.0 2.0 0.03 0.34 0.34 88 1007.1
20260506005301 60 274 0.0 2.0 0.02 0.33 0.33 88 1007.1
20260506005100 60 256 0.0 2.0 0.01 0.32 0.32 88 1007.1
20260506005000 60 256 0.0 2.0 0.01 0.32 0.32 87 1007.1
20260506004900 60 255 0.0 2.0 0.01 0.32 0.32 87 1007.1
20260506004801 60 215 0.0 2.0 0.01 0.32 0.32 88 1007.1
20260506004701 60 165 0.0 2.0 0.01 0.32 0.32 87 1007.0
20260506004601 60 219 1.0 2.0 0.01 0.32 0.32 87 1006.9
20260506004501 60 271 0.0 2.0 0.01 0.32 0.32 87 1006.9
20260506004400 60 244 0.0 2.0 0.01 0.32 0.32 87 1006.8
20260506004300 60 242 0.0 2.0 0.01 0.32 0.32 87 1006.7
20260506004101 60 184 0.0 1.0 0.01 0.32 0.32 87 1006.6
20260506004000 60 233 0.0 1.0 0.01 0.32 0.32 87 1006.7
20260506003800 60 242 0.0 1.0 0.01 0.32 0.32 87 1006.7
20260506003702 60 265 0.0 1.0 0.01 0.32 0.32 87 1006.5
20260506003601 60 265 0.0 1.0 0.01 0.32 0.32 87 1006.5
20260506003403 60 193 0.0 1.0 0.01 0.32 0.32 87 1006.5
20260506003301 60 5 0.0 0.0 0.01 0.32 0.32 88 1006.4
20260506003102 60 109 0.0 3.0 0.01 0.32 0.32 88 1006.4
20260506003002 60 109 0.0 3.0 0.01 0.32 0.32 88 1006.6
20260506002900 60 105 0.0 5.0 0.01 0.32 0.32 88 1006.5
20260506002803 60 103 0.0 5.0 0.01 0.32 0.32 87 1006.5
20260506002600 60 196 0.0 5.0 0.02 0.32 0.32 88 1006.5
20260506002401 60 145 0.0 5.0 0.02 0.32 0.32 88 1006.5
20260506002300 60 121 0.0 5.0 0.02 0.32 0.32 88 1006.5
20260506002201 60 161 0.0 5.0 0.02 0.32 0.32 87 1006.5
20260506002102 60 161 2.0 4.0 0.02 0.32 0.32 88 1006.5
20260506002000 60 146 0.0 0.0 0.02 0.32 0.32 87 1006.5
20260506001901 60 138 0.0 0.0 0.02 0.32 0.32 87 1006.5
20260506001700 60 134 0.0 0.0 0.02 0.32 0.32 88 1006.5
20260506001600 60 134 0.0 0.0 0.02 0.32 0.32 88 1006.6
20260506001502 60 134 0.0 0.0 0.02 0.32 0.32 88 1006.4
20260506001400 60 134 0.0 0.0 0.02 0.32 0.32 87 1006.5
20260506001301 60 142 0.0 0.0 0.02 0.32 0.32 87 1006.4
20260506001202 60 167 0.0 0.0 0.02 0.32 0.32 87 1006.4
20260506001102 60 155 0.0 0.0 0.03 0.32 0.32 88 1006.5
20260506001000 60 207 0.0 2.0 0.03 0.32 0.32 87 1006.6
20260506000901 60 200 0.0 2.0 0.03 0.32 0.32 87 1006.6
20260506000801 60 200 0.0 2.0 0.03 0.32 0.32 87 1006.5
20260506000659 60 165 0.0 2.0 0.03 0.32 0.32 87 1006.5
20260506000601 60 165 0.0 2.0 0.03 0.32 0.32 87 1006.5
20260506000502 60 165 0.0 2.0 0.02 0.31 0.31 87 1006.5
20260506000402 60 165 0.0 2.0 0.02 0.31 0.31 87 1006.5
20260506000302 60 165 0.0 2.0 0.02 0.31 0.31 87 1006.5
20260506000201 60 165 0.0 2.0 0.02 0.31 0.31 87 1006.4
20260506000100 60 186 0.0 3.0 0.02 0.31 0.31 87 1006.4
20260506000005 60 186 0.0 3.0 0.02 0.31 0.31 87 1006.3
20260505235800 60 163 0.0 3.0 0.02 0.31 0.31 87 1006.4
20260505235700 60 163 0.0 3.0 0.02 0.31 0.31 87 1006.4
20260505235600 60 189 0.0 3.0 0.02 0.31 0.31 87 1006.3
20260505235501 60 189 0.0 3.0 0.02 0.31 0.31 87 1006.3
20260505235400 60 189 0.0 3.0 0.02 0.31 0.31 87 1006.2
20260505235201 60 196 0.0 1.0 0.02 0.31 0.31 87 1006.1
20260505235101 60 196 0.0 1.0 0.02 0.31 0.31 87 1006.3
20260505235000 60 196 0.0 1.0 0.02 0.31 0.31 87 1006.1
20260505234800 60 196 1.0 2.0 0.02 0.31 0.31 87 1006.3
20260505234559 60 196 0.0 2.0 0.02 0.31 0.31 87 1006.3
20260505234501 60 225 0.0 2.0 0.02 0.31 0.31 87 1006.4
20260505234401 60 161 0.0 2.0 0.02 0.31 0.31 87 1006.3
20260505234300 60 161 0.0 3.0 0.02 0.31 0.31 87 1006.3
20260505234201 60 161 0.0 3.0 0.02 0.31 0.31 87 1006.3
20260505234100 60 161 0.0 3.0 0.02 0.31 0.31 87 1006.4
20260505234002 60 155 0.0 3.0 0.02 0.31 0.31 87 1006.5
20260505233900 60 211 0.0 3.0 0.02 0.31 0.31 87 1006.6
20260505233800 60 160 0.0 3.0 0.02 0.31 0.31 87 1006.7
20260505233701 60 168 0.0 3.0 0.02 0.31 0.31 87 1006.6
20260505233301 60 180 0.0 3.0 0.02 0.31 0.31 87 1006.6
20260505233202 60 176 1.0 3.0 0.02 0.31 0.31 87 1006.6
20260505233101 60 185 0.0 2.0 0.02 0.31 0.31 87 1006.6
20260505233002 60 185 0.0 2.0 0.02 0.31 0.31 87 1006.6
20260505232901 60 178 0.0 2.0 0.02 0.31 0.31 87 1006.6
20260505232802 60 162 1.0 5.0 0.02 0.31 0.31 87 1006.5
20260505232701 60 159 0.0 5.0 0.02 0.31 0.31 86 1006.5
20260505232600 60 159 0.0 5.0 0.01 0.30 0.30 86 1006.6
20260505232500 60 159 1.0 5.0 0.01 0.30 0.30 86 1006.4
20260505232305 60 135 0.0 5.0 0.01 0.30 0.30 86 1006.6
20260505232201 60 135 0.0 5.0 0.01 0.30 0.30 86 1006.5
20260505232101 60 223 0.0 5.0 0.01 0.30 0.30 86 1006.6
20260505232001 60 223 0.0 5.0 0.01 0.30 0.30 86 1006.8
20260505231900 60 244 1.0 4.0 0.01 0.30 0.30 86 1006.8
20260505231801 60 152 0.0 4.0 0.01 0.30 0.30 86 1006.8
20260505231702 61 166 1.0 5.0 0.01 0.30 0.30 86 1006.9
20260505231601 61 203 3.0 5.0 0.01 0.30 0.30 87 1007.0
20260505231500 61 123 0.0 5.0 0.01 0.30 0.30 87 1007.1
20260505231403 61 128 0.0 5.0 0.01 0.30 0.30 87 1007.0
20260505231303 61 75 0.0 7.0 0.01 0.30 0.30 87 1007.0
20260505231200 61 171 0.0 7.0 0.01 0.30 0.30 87 1007.0
20260505231101 61 230 0.0 7.0 0.00 0.29 0.29 87 1006.9
20260505230800 61 161 0.0 7.0 0.00 0.29 0.29 87 1007.0
20260505230602 61 180 1.0 7.0 0.00 0.29 0.29 87 1006.9
20260505230401 61 148 0.0 6.0 0.00 0.29 0.29 87 1007.0
20260505230300 61 61 0.0 6.0 0.00 0.29 0.29 87 1006.9
20260505230200 61 150 0.0 6.0 0.00 0.29 0.29 87 1007.0
20260505230003 61 286 2.0 6.0 0.00 0.29 0.29 87 1007.1
20260505225900 61 229 2.0 6.0 0.00 0.29 0.29 87 1007.0
20260505225801 61 174 1.0 6.0 0.00 0.29 0.29 87 1007.1
20260505225600 61 159 2.0 7.0 0.00 0.29 0.29 87 1007.0
20260505225500 61 183 3.0 6.0 0.00 0.29 0.29 87 1007.0
20260505225401 61 171 2.0 6.0 0.00 0.29 0.29 87 1007.0
20260505225300 61 203 1.0 6.0 0.00 0.29 0.29 88 1007.0
20260505225201 61 68 2.0 6.0 0.00 0.29 0.29 88 1007.0
20260505225002 61 120 0.0 6.0 0.00 0.29 0.29 87 1007.0
20260505224901 61 126 0.0 6.0 0.00 0.29 0.29 87 1007.0
20260505224800 61 148 5.0 6.0 0.00 0.29 0.29 88 1007.0
20260505224502 61 179 0.0 6.0 0.00 0.29 0.29 88 1007.2
20260505224400 61 130 1.0 6.0 0.00 0.29 0.29 87 1007.1
20260505224201 61 150 3.0 6.0 0.00 0.29 0.29 87 1007.1
20260505224101 61 136 4.0 7.0 0.00 0.29 0.29 87 1007.1
20260505223900 61 148 0.0 8.0 0.00 0.29 0.29 88 1007.1
20260505223802 61 133 0.0 8.0 0.00 0.29 0.29 88 1007.1
20260505223700 61 163 0.0 8.0 0.01 0.29 0.29 88 1007.2
20260505223601 61 132 0.0 8.0 0.01 0.29 0.29 87 1007.2
20260505223500 61 123 0.0 8.0 0.01 0.29 0.29 87 1007.1
20260505223402 61 128 0.0 8.0 0.01 0.29 0.29 87 1007.1
20260505223202 61 122 7.0 8.0 0.01 0.29 0.29 88 1007.3
20260505223100 61 157 3.0 8.0 0.01 0.29 0.29 88 1007.3
20260505223000 61 192 0.0 8.0 0.01 0.29 0.29 88 1007.3
20260505222900 61 192 0.0 8.0 0.01 0.29 0.29 88 1007.3
20260505222801 61 147 0.0 8.0 0.01 0.29 0.29 88 1007.3
20260505222701 61 146 3.0 8.0 0.01 0.29 0.29 88 1007.2
20260505222600 61 148 1.0 8.0 0.01 0.29 0.29 88 1007.2
20260505222500 61 168 1.0 8.0 0.01 0.29 0.29 88 1007.3
20260505222401 61 159 1.0 8.0 0.01 0.29 0.29 88 1007.3
20260505222300 61 139 0.0 8.0 0.02 0.29 0.29 88 1007.3
20260505222101 61 280 3.0 7.0 0.02 0.29 0.29 88 1007.3
20260505222002 61 203 1.0 6.0 0.02 0.29 0.29 88 1007.3
20260505221901 61 156 3.0 6.0 0.02 0.29 0.29 88 1007.3
20260505221801 61 313 2.0 5.0 0.02 0.29 0.29 89 1007.3
20260505221700 61 188 3.0 5.0 0.02 0.29 0.29 89 1007.3
20260505221601 61 161 0.0 5.0 0.03 0.29 0.29 89 1007.4
20260505221501 61 160 2.0 5.0 0.03 0.29 0.29 89 1007.4
20260505221301 61 281 0.0 3.0 0.03 0.29 0.29 89 1007.4
20260505221200 61 182 0.0 3.0 0.03 0.29 0.29 89 1007.5
20260505221001 61 177 1.0 6.0 0.03 0.29 0.29 89 1007.5
20260505220901 61 207 0.0 6.0 0.03 0.29 0.29 89 1007.6
20260505220801 61 152 1.0 6.0 0.03 0.29 0.29 89 1007.6
20260505220701 60 150 0.0 6.0 0.03 0.29 0.29 89 1007.5
20260505220601 60 144 2.0 6.0 0.03 0.29 0.29 88 1007.6
20260505220501 60 169 2.0 6.0 0.03 0.29 0.29 89 1007.6
20260505220300 61 205 4.0 6.0 0.04 0.29 0.29 89 1007.5
20260505220202 60 161 5.0 5.0 0.04 0.29 0.29 89 1007.6
20260505220000 60 240 1.0 6.0 0.04 0.29 0.29 89 1007.6
20260505215900 61 134 4.0 6.0 0.04 0.29 0.29 89 1007.6
20260505215801 60 137 2.0 9.0 0.04 0.29 0.29 89 1007.6
20260505215702 60 142 1.0 9.0 0.04 0.29 0.29 89 1007.7
20260505215600 61 278 0.0 9.0 0.04 0.29 0.29 89 1007.6
20260505215500 60 278 1.0 9.0 0.04 0.29 0.29 89 1007.6
20260505215401 61 107 1.0 9.0 0.04 0.29 0.29 89 1007.7
20260505215300 61 73 1.0 9.0 0.04 0.29 0.29 89 1007.6
20260505215201 60 244 1.0 9.0 0.04 0.29 0.29 89 1007.7
20260505215100 60 204 0.0 9.0 0.04 0.29 0.29 89 1007.7
20260505215000 60 84 3.0 9.0 0.04 0.29 0.29 89 1007.6
20260505214903 60 215 5.0 7.0 0.04 0.29 0.29 89 1007.7
20260505214801 60 199 2.0 7.0 0.04 0.29 0.29 89 1007.7
20260505214700 61 250 0.0 7.0 0.04 0.29 0.29 89 1007.7
20260505214602 60 246 2.0 7.0 0.04 0.29 0.29 89 1007.8
20260505214501 60 85 0.0 6.0 0.04 0.29 0.29 89 1007.8
20260505214401 61 55 0.0 6.0 0.04 0.29 0.29 89 1007.9
20260505214300 61 34 2.0 6.0 0.04 0.29 0.29 89 1007.9
20260505214200 60 227 4.0 5.0 0.04 0.29 0.29 89 1007.8
20260505214100 60 190 1.0 5.0 0.05 0.29 0.29 89 1007.9
20260505214001 60 133 0.0 5.0 0.05 0.29 0.29 89 1007.8
20260505213901 60 96 1.0 5.0 0.05 0.29 0.29 89 1007.9
20260505213800 60 162 1.0 7.0 0.05 0.29 0.29 89 1007.8
20260505213701 60 149 4.0 7.0 0.04 0.28 0.28 89 1007.9
20260505213400 60 200 4.0 7.0 0.04 0.28 0.28 89 1007.9
20260505213300 60 221 0.0 7.0 0.05 0.28 0.28 89 1007.9
20260505213200 60 117 1.0 7.0 0.05 0.28 0.28 89 1007.8
20260505213101 60 151 2.0 7.0 0.05 0.28 0.28 89 1007.9
20260505213001 60 175 1.0 7.0 0.05 0.28 0.28 89 1007.9
20260505212802 61 154 2.0 6.0 0.05 0.28 0.28 89 1007.9
20260505212700 60 270 0.0 4.0 0.05 0.28 0.28 89 1007.9
20260505212601 61 279 1.0 4.0 0.05 0.28 0.28 89 1007.9
20260505212402 61 193 2.0 6.0 0.06 0.28 0.28 89 1007.8
20260505212101 60 223 0.0 6.0 0.05 0.27 0.27 89 1007.8
20260505212000 60 254 0.0 6.0 0.05 0.27 0.27 89 1007.8
20260505211901 60 111 0.0 6.0 0.05 0.27 0.27 89 1007.8
20260505211800 60 208 0.0 6.0 0.06 0.27 0.27 89 1007.7
20260505211600 60 235 4.0 6.0 0.05 0.26 0.26 89 1007.8
20260505211502 60 153 1.0 7.0 0.06 0.26 0.26 89 1007.8
20260505211401 60 143 4.0 7.0 0.06 0.26 0.26 89 1007.9
20260505211300 60 205 4.0 7.0 0.06 0.26 0.26 89 1008.0
20260505211200 60 189 0.0 7.0 0.06 0.26 0.26 89 1008.0
20260505211100 60 216 0.0 7.0 0.06 0.26 0.26 89 1008.0
20260505210901 60 99 2.0 7.0 0.06 0.26 0.26 89 1008.0
20260505210800 60 263 1.0 7.0 0.06 0.26 0.26 89 1008.0
20260505210701 60 208 4.0 9.0 0.07 0.26 0.26 89 1008.0
20260505210400 60 146 1.0 9.0 0.07 0.26 0.26 89 1008.0
20260505210301 60 190 0.0 9.0 0.06 0.25 0.25 89 1008.0
20260505210201 60 159 2.0 9.0 0.06 0.25 0.25 89 1007.9
20260505205902 60 300 0.0 9.0 0.06 0.25 0.25 89 1007.9
20260505205800 60 165 9.0 9.0 0.06 0.25 0.25 89 1007.9
20260505205600 60 163 0.0 5.0 0.06 0.25 0.25 89 1008.0
20260505205501 60 184 0.0 5.0 0.06 0.25 0.25 89 1008.0
20260505205304 60 120 2.0 3.0 0.06 0.25 0.25 89 1008.0
20260505205200 60 219 1.0 3.0 0.07 0.25 0.25 89 1007.9
20260505205103 60 216 0.0 3.0 0.07 0.25 0.25 89 1007.9
20260505205000 60 192 0.0 3.0 0.07 0.25 0.25 89 1008.0
20260505204904 60 202 1.0 3.0 0.07 0.25 0.25 89 1008.0
20260505204800 60 281 0.0 4.0 0.07 0.25 0.25 89 1008.0
20260505204701 60 228 2.0 4.0 0.07 0.25 0.25 89 1008.0
20260505204402 60 200 0.0 4.0 0.08 0.25 0.25 88 1008.1
20260505204301 60 231 1.0 6.0 0.08 0.25 0.25 88 1008.2
20260505204200 60 232 0.0 6.0 0.08 0.25 0.25 88 1008.1
20260505204102 60 161 1.0 6.0 0.07 0.24 0.24 88 1008.1
20260505204001 60 200 3.0 6.0 0.07 0.24 0.24 88 1008.0
20260505203900 60 194 0.0 6.0 0.07 0.24 0.24 88 1008.1
20260505203700 60 207 2.0 8.0 0.07 0.24 0.24 88 1008.1
20260505203601 60 197 4.0 8.0 0.07 0.24 0.24 88 1008.2
20260505203501 60 225 2.0 8.0 0.08 0.24 0.24 88 1008.1
20260505203401 60 198 2.0 8.0 0.08 0.24 0.24 88 1008.2
20260505203300 60 210 1.0 8.0 0.07 0.23 0.23 88 1008.1
20260505203100 60 221 3.0 8.0 0.07 0.23 0.23 88 1008.0
20260505203002 60 171 1.0 8.0 0.08 0.23 0.23 88 1008.1
20260505202900 60 246 2.0 8.0 0.08 0.23 0.23 88 1008.2
20260505202701 60 179 1.0 7.0 0.08 0.23 0.23 88 1008.1
20260505202601 60 186 2.0 7.0 0.09 0.23 0.23 88 1008.2
20260505202500 60 194 0.0 7.0 0.09 0.22 0.22 88 1008.2
20260505202400 60 220 3.0 7.0 0.09 0.22 0.22 88 1008.2
20260505202300 60 191 1.0 7.0 0.11 0.22 0.22 88 1008.2
20260505202200 60 275 1.0 7.0 0.13 0.22 0.22 88 1008.3
20260505202101 61 196 3.0 7.0 0.13 0.22 0.22 88 1008.2
20260505201901 61 157 5.0 5.0 0.14 0.22 0.22 88 1008.3
20260505201800 60 193 2.0 6.0 0.13 0.21 0.21 88 1008.2
20260505201703 61 199 0.0 6.0 0.13 0.21 0.21 88 1008.3
20260505201601 61 199 0.0 6.0 0.13 0.21 0.21 88 1008.3
20260505201500 61 183 0.0 6.0 0.13 0.20 0.20 88 1008.2
20260505201401 61 207 2.0 6.0 0.13 0.20 0.20 88 1008.3
20260505201302 61 261 1.0 6.0 0.13 0.20 0.20 88 1008.3
20260505201200 61 240 1.0 6.0 0.13 0.20 0.20 87 1008.3
20260505201000 61 202 0.0 6.0 0.13 0.20 0.20 87 1008.2
20260505200901 61 140 1.0 7.0 0.13 0.20 0.20 87 1008.2
20260505200804 61 177 2.0 7.0 0.13 0.20 0.20 87 1008.3
20260505200701 61 70 4.0 8.0 0.12 0.19 0.19 87 1008.2
20260505200605 61 274 4.0 10.0 0.12 0.19 0.19 87 1008.4
20260505200500 61 202 2.0 10.0 0.12 0.19 0.19 87 1008.4
20260505200301 61 221 1.0 10.0 0.12 0.19 0.19 87 1008.4
20260505200201 61 161 5.0 10.0 0.12 0.19 0.19 87 1008.4
20260505195802 61 238 5.0 10.0 0.12 0.19 0.19 87 1008.3
20260505195701 61 191 2.0 6.0 0.12 0.19 0.19 87 1008.3
20260505195559 61 169 4.0 6.0 0.12 0.19 0.19 87 1008.3
20260505195400 61 247 1.0 5.0 0.12 0.19 0.19 87 1008.3
20260505195301 61 192 1.0 5.0 0.11 0.18 0.18 87 1008.4
20260505195200 61 198 2.0 5.0 0.11 0.18 0.18 86 1008.3
20260505195000 61 130 1.0 6.0 0.11 0.18 0.18 86 1008.4
20260505194800 61 198 2.0 6.0 0.11 0.18 0.18 86 1008.4
20260505194701 61 148 3.0 6.0 0.11 0.18 0.18 86 1008.3
20260505194600 61 185 2.0 6.0 0.11 0.18 0.18 86 1008.4
20260505194501 61 205 0.0 6.0 0.11 0.18 0.18 86 1008.4
20260505194402 61 196 0.0 6.0 0.10 0.17 0.17 86 1008.5
20260505194301 61 192 1.0 7.0 0.10 0.17 0.17 86 1008.4
20260505194200 61 192 2.0 6.0 0.10 0.17 0.17 85 1008.4
20260505194100 61 292 0.0 4.0 0.10 0.17 0.17 85 1008.4
20260505193902 61 191 0.0 8.0 0.10 0.17 0.17 85 1008.5
20260505193800 61 142 1.0 8.0 0.10 0.17 0.17 85 1008.5
20260505193700 61 21 1.0 8.0 0.10 0.17 0.17 84 1008.5
20260505193601 62 203 1.0 10.0 0.10 0.17 0.17 84 1008.5
20260505193500 62 230 2.0 10.0 0.09 0.16 0.16 84 1008.5
20260505193302 62 252 1.0 10.0 0.09 0.16 0.16 83 1008.6
20260505193202 62 169 2.0 10.0 0.09 0.16 0.16 83 1008.6
20260505193100 62 192 4.0 10.0 0.09 0.16 0.16 83 1008.5
20260505192800 63 259 3.0 10.0 0.08 0.15 0.15 81 1008.5
20260505192701 63 213 2.0 10.0 0.07 0.14 0.14 80 1008.6
20260505192601 63 156 6.0 9.0 0.07 0.14 0.14 80 1008.7
20260505192500 63 217 0.0 10.0 0.06 0.13 0.13 79 1008.7
20260505192305 64 325 1.0 12.0 0.04 0.11 0.11 77 1008.8
20260505192201 64 119 4.0 12.0 0.02 0.09 0.09 77 1008.8
20260505192003 65 245 3.0 12.0 0.02 0.09 0.09 75 1008.7
20260505191900 65 147 2.0 12.0 0.01 0.08 0.08 75 1008.7
20260505191800 66 198 5.0 12.0 0.01 0.08 0.08 74 1008.6
20260505191701 66 296 5.0 12.0 0.01 0.08 0.08 73 1008.6
20260505191601 66 226 1.0 12.0 0.01 0.08 0.08 71 1008.6
20260505191501 67 69 2.0 12.0 0.00 0.07 0.07 71 1008.6
20260505191401 67 281 7.0 9.0 0.00 0.07 0.07 69 1008.6
20260505191302 67 290 3.0 9.0 0.00 0.07 0.07 68 1008.6
20260505191202 67 87 1.0 9.0 0.00 0.07 0.07 68 1008.5
20260505191101 68 150 3.0 9.0 0.00 0.07 0.07 67 1008.5
20260505191000 68 188 6.0 10.0 0.00 0.07 0.07 67 1008.3
20260505190901 68 128 2.0 10.0 0.00 0.07 0.07 66 1008.3
20260505190700 68 323 4.0 10.0 0.00 0.07 0.07 65 1008.3
20260505190601 68 184 3.0 10.0 0.00 0.07 0.07 64 1008.2
20260505190502 68 284 4.0 10.0 0.00 0.07 0.07 64 1008.2
20260505190301 68 239 3.0 10.0 0.00 0.07 0.07 63 1008.1
20260505190201 68 144 4.0 7.0 0.00 0.07 0.07 64 1008.2
20260505190005 68 224 1.0 7.0 0.00 0.07 0.07 64 1008.1
20260505185903 68 167 4.0 11.0 0.00 0.07 0.07 64 1008.1
20260505185802 68 187 1.0 11.0 0.00 0.07 0.07 64 1008.1
20260505185701 68 260 2.0 11.0 0.00 0.07 0.07 64 1008.2
20260505185600 68 297 2.0 11.0 0.00 0.07 0.07 65 1008.1
20260505185501 68 196 0.0 11.0 0.00 0.07 0.07 65 1008.1
20260505185401 68 229 0.0 11.0 0.00 0.07 0.07 63 1008.0
20260505185300 68 61 3.0 11.0 0.00 0.07 0.07 64 1008.1
20260505185201 68 128 2.0 11.0 0.00 0.07 0.07 65 1008.2
20260505184901 68 170 1.0 7.0 0.00 0.07 0.07 65 1008.1
20260505184700 68 241 2.0 7.0 0.00 0.07 0.07 65 1008.1
20260505184600 68 257 0.0 8.0 0.00 0.07 0.07 65 1008.1
20260505184503 68 226 0.0 8.0 0.00 0.07 0.07 65 1008.1
20260505184300 68 227 1.0 8.0 0.00 0.07 0.07 64 1008.0
20260505184200 68 192 4.0 8.0 0.00 0.07 0.07 64 1008.1
20260505184101 68 265 4.0 8.0 0.00 0.07 0.07 65 1008.1
20260505184001 68 261 1.0 8.0 0.00 0.07 0.07 64 1008.3
20260505183901 68 178 2.0 8.0 0.00 0.07 0.07 64 1008.1
20260505183802 68 341 2.0 8.0 0.00 0.07 0.07 64 1008.2
20260505183700 68 171 6.0 9.0 0.00 0.07 0.07 64 1008.3
20260505183601 68 134 0.0 5.0 0.00 0.07 0.07 65 1008.3
20260505183501 68 278 1.0 5.0 0.00 0.07 0.07 65 1008.3
20260505183401 68 111 3.0 5.0 0.00 0.07 0.07 65 1008.4
20260505183300 68 147 2.0 7.0 0.00 0.07 0.07 64 1008.3
20260505183203 68 209 1.0 7.0 0.00 0.07 0.07 64 1008.2
20260505183001 68 163 2.0 7.0 0.00 0.07 0.07 64 1008.4
20260505182905 68 198 1.0 7.0 0.00 0.07 0.07 64 1008.4
20260505182600 68 187 3.0 11.0 0.00 0.07 0.07 64 1008.5
20260505182500 68 244 2.0 11.0 0.00 0.07 0.07 63 1008.4
20260505182400 68 209 4.0 11.0 0.00 0.07 0.07 63 1008.5
20260505182305 68 281 1.0 11.0 0.00 0.07 0.07 63 1008.5
20260505182201 68 47 1.0 11.0 0.00 0.07 0.07 63 1008.5
20260505182105 68 155 3.0 11.0 0.00 0.07 0.07 64 1008.5
20260505182000 68 213 4.0 11.0 0.00 0.07 0.07 63 1008.5
20260505181900 68 187 11.0 11.0 0.00 0.07 0.07 64 1008.5
20260505181800 68 197 2.0 9.0 0.00 0.07 0.07 63 1008.5
20260505181701 68 317 1.0 9.0 0.00 0.07 0.07 63 1008.5
20260505181601 68 198 4.0 9.0 0.00 0.07 0.07 64 1008.5
20260505181401 68 200 3.0 9.0 0.00 0.07 0.07 63 1008.4
20260505181301 68 117 0.0 7.0 0.00 0.07 0.07 64 1008.6
20260505181201 68 162 0.0 7.0 0.00 0.07 0.07 63 1008.5
20260505181103 68 139 2.0 7.0 0.00 0.07 0.07 64 1008.6
20260505181000 68 184 2.0 7.0 0.00 0.07 0.07 63 1008.6
20260505180800 68 198 4.0 7.0 0.00 0.07 0.07 63 1008.6
20260505180700 68 227 0.0 8.0 0.00 0.07 0.07 64 1008.6
20260505180601 68 283 1.0 8.0 0.00 0.07 0.07 64 1008.6
20260505180501 68 212 1.0 9.0 0.00 0.07 0.07 64 1008.7
20260505180401 68 156 1.0 9.0 0.00 0.07 0.07 63 1008.7
20260505180300 68 212 4.0 9.0 0.00 0.07 0.07 62 1008.8
20260505180200 68 181 4.0 9.0 0.00 0.07 0.07 62 1008.7
20260505180100 68 180 1.0 9.0 0.00 0.07 0.07 62 1008.8
20260505180003 68 218 5.0 9.0 0.00 0.07 0.07 63 1008.9
20260505175903 68 178 1.0 9.0 0.00 0.07 0.07 63 1008.9
20260505175759 68 186 2.0 9.0 0.00 0.07 0.07 62 1008.9
20260505175700 68 216 2.0 9.0 0.00 0.07 0.07 63 1008.8
20260505175603 68 344 3.0 10.0 0.00 0.07 0.07 63 1009.0
20260505175509 68 152 2.0 8.0 0.00 0.07 0.07 62 1008.9
20260505175400 68 234 1.0 8.0 0.00 0.07 0.07 62 1008.9
20260505175305 68 311 3.0 8.0 0.00 0.07 0.07 62 1008.9
20260505175203 68 238 2.0 8.0 0.00 0.07 0.07 62 1009.0
20260505175100 68 213 2.0 8.0 0.00 0.07 0.07 62 1008.9
20260505175000 68 121 2.0 8.0 0.00 0.07 0.07 63 1008.9
20260505174901 68 130 2.0 8.0 0.00 0.07 0.07 62 1008.9
20260505174801 68 138 5.0 7.0 0.00 0.07 0.07 62 1008.9
20260505174702 68 142 1.0 7.0 0.00 0.07 0.07 62 1008.9
20260505174600 68 184 1.0 7.0 0.00 0.07 0.07 63 1008.8
20260505174500 68 165 0.0 7.0 0.00 0.07 0.07 63 1008.8
20260505174401 68 194 2.0 7.0 0.00 0.07 0.07 63 1008.9
20260505174300 68 128 2.0 7.0 0.00 0.07 0.07 63 1008.8
20260505174201 68 223 2.0 7.0 0.00 0.07 0.07 62 1008.9
20260505174101 68 244 2.0 7.0 0.00 0.07 0.07 63 1008.8
20260505174000 68 213 4.0 5.0 0.00 0.07 0.07 62 1008.8
20260505173900 68 228 0.0 5.0 0.00 0.07 0.07 63 1008.7
20260505173801 68 205 0.0 5.0 0.00 0.07 0.07 63 1008.8
20260505173700 68 224 2.0 5.0 0.00 0.07 0.07 63 1008.8
20260505173602 68 155 1.0 5.0 0.00 0.07 0.07 62 1008.9
20260505173500 68 192 2.0 5.0 0.00 0.07 0.07 63 1008.8
20260505173401 67 194 3.0 8.0 0.00 0.07 0.07 63 1008.9
20260505173300 67 221 2.0 8.0 0.00 0.07 0.07 64 1008.8
20260505173200 67 211 2.0 10.0 0.00 0.07 0.07 63 1008.8
20260505173100 67 201 1.0 10.0 0.00 0.07 0.07 63 1008.9
20260505173000 67 226 1.0 10.0 0.00 0.07 0.07 63 1009.0
20260505172901 67 205 3.0 10.0 0.00 0.07 0.07 63 1009.0
20260505172801 67 348 0.0 10.0 0.00 0.07 0.07 64 1008.9
20260505172659 67 176 2.0 10.0 0.00 0.07 0.07 63 1009.0
20260505172600 67 144 1.0 10.0 0.00 0.07 0.07 63 1008.9
20260505172501 67 196 3.0 10.0 0.00 0.07 0.07 63 1008.9
20260505172402 67 160 2.0 10.0 0.00 0.07 0.07 62 1008.9
20260505172301 67 355 5.0 11.0 0.00 0.07 0.07 63 1008.9
20260505172101 67 259 0.0 11.0 0.00 0.07 0.07 62 1009.1
20260505172002 67 195 5.0 11.0 0.00 0.07 0.07 62 1009.1
20260505171801 67 160 6.0 11.0 0.00 0.07 0.07 62 1009.2
20260505171600 67 188 4.0 11.0 0.00 0.07 0.07 61 1009.1
20260505171500 67 228 8.0 11.0 0.00 0.07 0.07 62 1009.0
20260505171401 67 175 2.0 8.0 0.00 0.07 0.07 61 1009.1
20260505171300 67 198 1.0 8.0 0.00 0.07 0.07 62 1009.1
20260505171101 67 229 3.0 8.0 0.00 0.07 0.07 62 1009.1
20260505171001 67 345 3.0 7.0 0.00 0.07 0.07 62 1009.1
20260505170900 67 229 2.0 7.0 0.00 0.07 0.07 62 1009.1
20260505170800 67 236 1.0 8.0 0.00 0.07 0.07 63 1009.0
20260505170700 67 142 2.0 8.0 0.00 0.07 0.07 62 1009.1
20260505170600 67 205 2.0 11.0 0.00 0.07 0.07 62 1009.1
20260505170503 67 221 4.0 11.0 0.00 0.07 0.07 63 1009.1
20260505170359 67 81 1.0 11.0 0.00 0.07 0.07 62 1009.0
20260505170301 67 211 3.0 11.0 0.00 0.07 0.07 63 1009.1
20260505170200 67 250 0.0 11.0 0.00 0.07 0.07 62 1009.0
20260505170101 67 184 2.0 11.0 0.00 0.07 0.07 62 1009.0
20260505170003 67 160 4.0 11.0 0.00 0.07 0.07 62 1009.0
20260505165800 67 229 1.0 11.0 0.00 0.07 0.07 63 1009.0
20260505165701 67 221 5.0 10.0 0.00 0.07 0.07 63 1009.0
20260505165600 67 163 2.0 10.0 0.00 0.07 0.07 62 1009.0
20260505165501 67 208 4.0 10.0 0.00 0.07 0.07 62 1008.9
20260505165201 67 242 0.0 9.0 0.00 0.07 0.07 63 1009.1
20260505165101 66 177 2.0 9.0 0.00 0.07 0.07 62 1009.0
20260505165000 66 223 4.0 9.0 0.00 0.07 0.07 61 1009.0
20260505164901 66 98 3.0 9.0 0.00 0.07 0.07 62 1009.0
20260505164801 67 141 3.0 9.0 0.00 0.07 0.07 62 1009.0
20260505164702 67 255 8.0 9.0 0.00 0.07 0.07 62 1009.1
20260505164601 67 221 3.0 9.0 0.00 0.07 0.07 62 1009.1
20260505164500 67 186 6.0 9.0 0.00 0.07 0.07 62 1009.0
20260505164401 67 182 3.0 9.0 0.00 0.07 0.07 62 1009.0
20260505164300 67 150 9.0 9.0 0.00 0.07 0.07 62 1009.1
20260505164200 67 173 5.0 5.0 0.00 0.07 0.07 63 1009.0
20260505164100 67 202 3.0 5.0 0.00 0.07 0.07 63 1009.1
20260505164001 67 217 1.0 5.0 0.00 0.07 0.07 62 1009.1
20260505163800 66 263 0.0 6.0 0.00 0.07 0.07 63 1009.0
20260505163600 66 115 1.0 6.0 0.00 0.07 0.07 62 1009.0
20260505163501 66 202 1.0 6.0 0.00 0.07 0.07 62 1009.0
20260505163301 66 192 3.0 8.0 0.00 0.07 0.07 62 1008.9
20260505163204 66 207 1.0 8.0 0.00 0.07 0.07 62 1008.9
20260505163100 66 248 4.0 8.0 0.00 0.07 0.07 62 1008.9
20260505162901 66 222 5.0 8.0 0.00 0.07 0.07 62 1009.0
20260505162802 66 186 3.0 8.0 0.00 0.07 0.07 62 1008.9
20260505162701 66 183 3.0 8.0 0.00 0.07 0.07 61 1009.0
20260505162600 66 140 3.0 8.0 0.00 0.07 0.07 61 1009.0
20260505162459 66 196 6.0 8.0 0.00 0.07 0.07 61 1009.0
20260505162401 66 228 1.0 7.0 0.00 0.07 0.07 61 1009.0
20260505162307 66 269 1.0 7.0 0.00 0.07 0.07 62 1009.0
20260505162200 66 171 8.0 8.0 0.00 0.07 0.07 62 1009.1
20260505162000 66 180 1.0 8.0 0.00 0.07 0.07 62 1009.1
20260505161901 66 302 0.0 8.0 0.00 0.07 0.07 62 1009.1
20260505161800 66 211 3.0 8.0 0.00 0.07 0.07 62 1009.1
20260505161659 66 259 0.0 8.0 0.00 0.07 0.07 62 1009.1
20260505161600 66 184 5.0 8.0 0.00 0.07 0.07 62 1009.1
20260505161504 66 168 4.0 8.0 0.00 0.07 0.07 63 1009.0
20260505161401 66 224 1.0 8.0 0.00 0.07 0.07 62 1009.0
20260505161302 66 269 0.0 8.0 0.00 0.07 0.07 62 1009.0
20260505161200 66 259 3.0 8.0 0.00 0.07 0.07 63 1009.0